Miscellaneous Local Product
Issued by NWS North Platte, NE

Home | Current Version | Previous Version | Text Only | Print | Product List | Glossary On
Versions: 1 2 3 4 5 6 7 8 9 10 11 12 13 14 15 16 17 18 19 20 21 22 23 24 25 26 27 28 29 30 31 32 33 34 35 36 37 38 39 40 41 42 43 44 45 46 47 48 49 50
000
AXUS43 KLBF 061910
MISLBF


WESTERN AND NORTH CENTRAL NEBRASKA HOURLY WEATHER ROUNDUP
NATIONAL WEATHER SERVICE NORTH PLATTE NE
200 PM CDT FRI MAY 06 2016

NOTE: "FAIR" INDICATES FEW OR NO CLOUDS BELOW 12,000 FEET WITH NO
SIGNIFICANT WEATHER AND/OR OBSTRUCTIONS TO VISIBILITY.

NOTE: STATIONS NOT REPORTING VARIABLES SUCH AS SKY/WEATHER OR
PRESSURE ARE PROVIDED BY RAWS AND APRS NETWORKS AND ARE NOT UNDER
NATIONAL WEATHER SERVICE QUALITY CONTROL.

...OBSERVATIONS IN AND NEAR THE EASTERN PANHANDLE OF NEBRASKA...

CITY           SKY/WX    TMP DP  RH WIND       PRES   REMARKS
PINE RIDGE     CLOUDY    80  48  32 SW7       29.92S
CHADRON        MOSUNNY   82  50  32 CALM      29.90F
ALLIANCE       MOSUNNY   76  44  32 S13       29.93F
SIDNEY           N/A     76  50  40 SE13      29.95F
CRESCENT LAKE    N/A     78  47  33 S10G20      N/A
BIG SPRINGS      N/A     75  51  42 SE12        N/A
$$

...OBSERVATIONS IN NORTHERN NEBRASKA AND FAR SOUTHERN SOUTH DAKOTA...

CITY           SKY/WX    TMP DP  RH WIND       PRES   REMARKS
WINNER         FAIR      86  50  28 SW16      29.85F
VALENTINE      MOSUNNY   87  42  20 SW16G24   29.88F
THEDFORD       MOSUNNY   85  47  26 S15G23    29.92F
AINSWORTH      SUNNY     84  48  28 S16G22    29.90F
O`NEILL        SUNNY     84  48  28 S15       29.90F
ORD            SUNNY      2  32 100 S18G28    29.92F WCI -19
BROKEN BOW     SUNNY     79  51  37 S16G29    29.94F
BUTTE            N/A     86  49  27 S17         N/A
CHAMBERS         N/A     84  53  34 S12         N/A
EWING            N/A     85  51  30 S17G24      N/A
$$

...OBSERVATIONS IN SOUTHWEST NEBRASKA AND FAR NORTHEAST COLORADO...

CITY           SKY/WX    TMP DP  RH WIND       PRES   REMARKS
HOLYOKE        FAIR      81  46  30 SE15G21   29.92F
IMPERIAL       MOSUNNY   79  49  34 S13       29.92F
OGALLALA       MOSUNNY   77  44  30 SE16      29.93F
NORTH PLATTE   CLOUDY    79  50  36 SE12      29.92F
MCCOOK         MOSUNNY   79  53  40 S16       29.93F
LEXINGTON      CLOUDY    78  50  37 S20G28    29.94F
PAXTON           N/A     77  51  39 SE12        N/A
STAPLETON        N/A     83  52  33 CALM        N/A
GOTHENBURG       N/A     78  46  31 S12         N/A
CALLAWAY         N/A     80  52  37 S18         N/A
$$

...OBSERVATIONS IN CENTRAL LINCOLN COUNTY AREA...

CITY           SKY/WX    TMP DP  RH WIND       PRES   REMARKS
N.P. AIRPORT   CLOUDY    79  50  36 SE12      29.92F
N.P. DOWNTOWN    N/A     81  50  33 S7G17       N/A
N.P. SOUTHEAST   N/A     79  50  36 S12         N/A
N.P. HILLCREST   N/A     80  49  33 S13G20      N/A
$$

...SOME OBSERVATIONS FROM AROUND THE REGION...

CITY           SKY/WX    TMP DP  RH WIND       PRES   REMARKS
DENVER         CLOUDY    76  38  25 E10G20    29.95F
LARAMIE        CLOUDY    66  34  30 NE10      30.02F
CHEYENNE       SUNNY     75  40  28 S9        29.99F
SCOTTSBLUFF    CLOUDY    75  49  39 SE10      29.92F
RAPID CITY     MOSUNNY   75  49  39 N26G38    29.94S
BISMARCK       SUNNY     77  49  37 N18G26    29.96S
PIERRE         MOSUNNY   82  56  40 N9        29.83F
SIOUX FALLS    PTSUNNY   82  54  37 SW15G26   29.83F
OMAHA          MOSUNNY   85  42  22 SW14      29.93F
GRAND ISLAND   MOSUNNY   82  47  29 S23G33    29.95F
KANSAS CITY    SUNNY     79  51  37 SW10      30.04F
WICHITA        MOSUNNY   81  48  31 S15       30.04F
OKLAHOMA CITY  PTSUNNY   79  50  36 SE14      30.08F
DALLAS         MOSUNNY   82  46  28 SE10      30.07F
AMARILLO       SUNNY     82  40  22 S24G31    30.05F
DODGE CITY     SUNNY     79  48  33 S23G29    30.01F
HAYS           CLOUDY    81  52  36 S25G32    29.97F
GOODLAND       CLOUDY    85  36  17 S20       29.93F
$$




USA.gov is the U.S. government's official web portal to all federal, state and local government web resources and services.